Nantucket, Massachusetts, United States (02554)
Lat: 41.28N, Lon: 70.1W
Wx Zone: MAZ024
Local Info
Past Weather Observations for Today

NOTE: This archive is for the closest National Weather Service station to Nantucket. Information may differ from the station used for current weather conditions.

Click here for Long-term Archive

Time Weather Temperature Dewpoint Humidity Pressure Winds Precip Visibility
19:53
Mostly Cloudy
34°F / 1°C 18°F / -8°C 51% 30.15 in
(1021 mb)
NW 16.1 mph
(NW 26 kph)
- 10SM
18:53
Overcast
36°F / 2°C 18°F / -8°C 48% 30.15 in
(1021 mb)
NW 15 mph
(NW 24 kph)
- 10SM
17:53
Partly Cloudy
34°F / 1°C 19°F / -7°C 56% 30.12 in
(1020 mb)
NW 16.1 mph
(NW 26 kph)
- 10SM
16:53
Mostly Cloudy
36°F / 2°C 19°F / -7°C 52% 30.09 in
(1019 mb)
NNW 19.6 mph
(NNW 32 kph)
- 10SM
15:53
Mostly Cloudy
36°F / 2°C 21°F / -6°C 56% 30.06 in
(1018 mb)
NNW 19.6 mph
(NNW 32 kph)
- 10SM
14:53
Overcast
36°F / 2°C 25°F / -4°C 65% 30.04 in
(1017 mb)
NNW 19.6 mph
(NNW 32 kph)
0.00 in
(0.00 mm)
10SM
13:53
Overcast
Light Snow
34°F / 1°C 27°F / -3°C 75% 30.04 in
(1017 mb)
NNW 19.6 mph
(NNW 32 kph)
0.00 in
(0.00 mm)
3SM
12:53
Overcast
Light Snow
36°F / 2°C 27°F / -3°C 70% 30.01 in
(1016 mb)
NNW 24.2 mph
(NNW 39 kph)
0.00 in
(0.00 mm)
6SM
12:33
Overcast
Light Snow
36°F / 2°C 27°F / -3°C 70% 30.01 in
(1016 mb)
NNW 21.9 mph
(NNW 35 kph)
0.00 in
(0.00 mm)
7SM
11:53
Overcast
36°F / 2°C 28°F / -2°C 75% 30.01 in
(1016 mb)
NNW 25.3 mph
(NNW 41 kph)
- 10SM
11:00
Overcast
36°F / 2°C 28°F / -2°C 75% 29.98 in
(1015 mb)
NNW 25.3 mph
(NNW 41 kph)
- 10SM
10:53
Overcast
36°F / 2°C 28°F / -2°C 75% 29.98 in
(1015 mb)
NNW 23 mph
(NNW 37 kph)
0.00 in
(0.00 mm)
10SM
10:07
Overcast
Light Snow
36°F / 2°C 28°F / -2°C 75% 30.01 in
(1016 mb)
NW 25.3 mph
(NW 41 kph)
0.00 in
(0.00 mm)
5SM
09:53
Overcast
36°F / 2°C 28°F / -2°C 75% 30.01 in
(1016 mb)
NW 25.3 mph
(NW 41 kph)
- 10SM
08:53
Overcast
36°F / 2°C 30°F / -1°C 81% 29.98 in
(1015 mb)
NW 20.7 mph
(NW 33 kph)
- 10SM
07:53
Overcast
36°F / 2°C 32°F / 0°C 87% 29.98 in
(1015 mb)
NW 17.3 mph
(NW 28 kph)
- 10SM
07:18
Overcast
37°F / 3°C 34°F / 1°C 87% 29.98 in
(1015 mb)
NW 13.8 mph
(NW 22 kph)
- 10SM
06:53
Overcast
37°F / 3°C 34°F / 1°C 87% 29.95 in
(1014 mb)
NW 12.7 mph
(NW 20 kph)
- 10SM
05:53
Overcast
37°F / 3°C 34°F / 1°C 87% 29.95 in
(1014 mb)
NNW 11.5 mph
(NNW 19 kph)
- 10SM
04:53
Overcast
37°F / 3°C 34°F / 1°C 87% 29.92 in
(1013 mb)
NNW 15 mph
(NNW 24 kph)
- 10SM
03:53
Overcast
37°F / 3°C 34°F / 1°C 87% 29.92 in
(1013 mb)
NNW 12.7 mph
(NNW 20 kph)
- 10SM
02:53
Overcast
37°F / 3°C 36°F / 2°C 93% 29.92 in
(1013 mb)
NNW 16.1 mph
(NNW 26 kph)
- 10SM
02:15
Overcast
39°F / 4°C 36°F / 2°C 87% 29.92 in
(1013 mb)
NNW 13.8 mph
(NNW 22 kph)
- 10SM
01:53
Overcast
39°F / 4°C 36°F / 2°C 87% 29.95 in
(1014 mb)
N 11.5 mph
(N 19 kph)
- 10SM
00:53
Overcast
39°F / 4°C 36°F / 2°C 87% 29.92 in
(1013 mb)
N 8.1 mph
(N 13 kph)
- 9SM
Time Weather Temperature Dewpoint Humidity Pressure Winds Precip Visibility


Weather for websites

WeatherForYou.com, LLC is not responsible for any damages or problems caused by this service. Current weather conditions are obtained from the closest station including government and personal stations which may have varying degrees of accuracy. Weather forecasts are derived from the NOAA NDFD. Like all things, this site belongs to Jesus Christ... He just trusts me to maintain it. If you have any questions or comments email webmaster@weatherforyou.com

Copyright © 2014, WeatherForYou.com LLC. All rights reserved.